Regional Weather Roundup
Issued by NWS

Home | Current Version | Previous Version | Text Only | Print | Product List | Glossary Off
Versions: 1 2 3 4 5 6 7 8 9 10 11 12 13 14 15 16 17 18 19 20 21 22 23 24 25 26 27 28 29 30 31 32 33 34 35 36 37 38 39 40 41 42 43 44 45 46 47 48 49 50

000
ASUS43 KDMX 290907
RWRIA

WEATHER ROUNDUP FOR IOWA
NATIONAL WEATHER SERVICE DES MOINES IA
400 AM CDT FRI AUG 29 2014

NOTE: "FAIR" INDICATES FEW OR NO CLOUDS BELOW 12,000 FEET WITH NO
SIGNIFICANT WEATHER AND/OR OBSTRUCTIONS TO VISIBILITY.

* - THESE STATIONS ARE NOT NWS STATIONS...THUS NOT UNDER NWS
QUALITY CONTROL.  THEY ALSO DO NOT REPORT WEATHER SUCH
AS PRECIPITATION OR FOG.

IAZ001>003-012>014-020>022-031>034-043>046-291000-
   NORTHWEST IOWA

CITY           SKY/WX    TMP DP  RH WIND       PRES   REMARKS
CARROLL *      HVY RAIN  70  68  94 SE12G26   29.84F VSB 3/4
DENISON *      CLOUDY    70  68  94 S12G18    29.81R
LE MARS *        N/A     70  70 100 S7G14     29.79R
ORANGE CITY *  PTCLDY    72  68  88 S6        29.78F
SHELDON *      CLEAR     70  70 100 SE12      29.77F
SIOUX CITY     MOCLDY    72  69  90 S7        29.78F
SPENCER        PTCLDY    68  65  90 SE10      29.81F
STORM LAKE *   CLEAR     66  66 100 SE9       29.82F
$$

IAZ055>058-069>071-079>083-090>094-291000-
   SOUTHWEST IOWA

CITY           SKY/WX    TMP DP  RH WIND       PRES   REMARKS
ATLANTIC *     MOCLDY    68  66  94 NE5       29.84F
AUDUBON *      PTCLDY    70  66  88 CALM      29.87S
CLARINDA *     MOCLDY    72  70  94 CALM      29.84F
COUNCIL BLFS * MOCLDY    70  70 100 SE9       29.81F FOG
CRESTON *      CLEAR     66  66 100 E7        29.87F
HARLAN  *      PTCLDY    68  68 100 E7        29.87F
RED OAK *      CLOUDY    72  70  94 E5        29.83F
SHENANDOAH *   MOCLDY    73  72  94 E5        29.82F
$$

IAZ047>049-059>061-072>074-084-291000-
   CENTRAL IOWA

CITY           SKY/WX    TMP DP  RH WIND       PRES   REMARKS
AMES           MOCLDY    67  66  97 SE7       29.86S
ANKENY *       MOCLDY    68  66  94 SE3       29.86F
CHARITON *     MOCLDY    70  68  94 E6        29.88F
DES MOINES     CLOUDY    69  66  90 SE7       29.86F
GRINNELL*      PTCLDY    68  66  94 E7        29.89F
KNOXVILLE *    PTCLDY    68  66  94 SE8       29.87F
MARSHALLTOWN   CLOUDY    67  66  97 SE7       29.86F
PELLA *        PTCLDY    68  66  94 SE3       29.89F
PERRY *        MOCLDY    66  66 100 SE5       29.86S
$$

IAZ004>006-015-016-023>025-035-036-291000-
   NORTH CENTRAL IOWA

CITY           SKY/WX    TMP DP  RH WIND       PRES   REMARKS
ALGONA *       PTCLDY    68  68 100 S13       29.83F
CLARION *      CLOUDY    68  68 100 SE12      29.85F
ESTHERVILLE    CLOUDY    67  66  97 S12       29.83S
FORT DODGE *   MOCLDY    68  66  94 S16G22    29.86S
MASON CITY     CLOUDY    68  68 100 S9        29.88S
FOREST CITY *  CLOUDY    68  68 100 S13       29.86S
IOWA FALLS *   LGT RAIN  68  66  94 E3        29.88F
$$

IAZ007>011-017>019-026>030-037>042-050>054-066-291000-
   NORTHEAST IOWA

CITY           SKY/WX    TMP DP  RH WIND       PRES   REMARKS
CEDAR RAPIDS   CLOUDY    69  69 100 SW3       29.92S
CHARLES CITY * LGT RAIN  68  68 100 S8G14     29.88F
CLINTON *      MOCLDY    66  64  94 SE7       29.95S
DECORAH *      MOCLDY    68  68 100 S7        29.89F FOG
DUBUQUE        CLOUDY    67  67 100 S10       29.93F FOG
MONTICELLO *   CLOUDY    68  68 100 CALM      29.92S FOG
OELWEIN *      CLOUDY    68  68 100 S8        29.90F
WATERLOO       LGT RAIN  68  67  96 S8        29.86F
$$

IAZ064-065-067-068-078-291000-
   EAST CENTRAL IOWA

CITY           SKY/WX    TMP DP  RH WIND       PRES   REMARKS
DAVENPORT      MOCLDY    70  67  90 S7        29.93F
IOWA CITY      PTCLDY    68  68 100 SE7       29.91F
MT. PLEASANT * MOCLDY    70  68  94 SE7       29.91F
MUSCATINE *    CLOUDY    70  68  94 SE5       29.91F
QUAD CITIES    MOCLDY    70  67  90 SE3       29.92F
$$

IAZ062-063-075>077-085>089-095>099-291000-
   SOUTHEAST IOWA

CITY           SKY/WX    TMP DP  RH WIND       PRES   REMARKS
BURLINGTON     PTCLDY    72  69  90 S10       29.92S
FAIRFIELD *    MOCLDY    70  66  88 SE7       29.90S
FORT MADISON * PTCLDY    72  72 100 S10G16    29.92F
KEOKUK *       CLEAR     72  70  94 SE8       29.91S
OSKALOOSA *    MOCLDY    70  68  94 CALM      29.91F
CENTERVILLE *  MOCLDY    70  70 100 SE5       29.89F
OTTUMWA        CLOUDY    70  68  93 CALM      29.91S
WASHINGTON *   CLOUDY    70  70 100 S8        29.90F
$$

ABBREVIATIONS USED IN REMARKS
   TC - TEMPERATURES IN CELSIUS
  WCI - WIND CHILL INDEX
   HX - HEAT INDEX
  VSB - VISIBILITY
$$



USA.gov is the U.S. government's official web portal to all federal, state and local government web resources and services.